Regional Weather Roundup
Issued by NWS New Orleans/Baton Rouge, LA

Home | Current Version | Previous Version | Graphics & Text | Print | Product List | Glossary On
Versions: 1 2 3 4 5 6 7 8 9 10 11 12 13 14 15 16 17 18 19 20 21 22 23 24 25 26 27 28 29 30 31 32 33 34 35 36 37 38 39 40 41 42 43 44 45 46 47 48 49 50
748
ASUS44 KLIX 212210
RWRLIX
NEW ORLEANS REGIONAL WEATHER ROUNDUP
NATIONAL WEATHER SERVICE NEW ORLEANS LA
500 PM CDT THU AUG 21 2014

NOTE: "FAIR" INDICATES FEW OR NO CLOUDS BELOW 12,000 FEET WITH NO
      SIGNIFICANT WEATHER AND/OR OBSTRUCTIONS TO VISIBILITY.
      SKY/WX - SKY CONDITION AND SIGNIFICANT WEATHER.
      TMP - AIR TEMPERATURE.     DP    - DEWPOINT TEMPERATURE.
      RH  - RELATIVE HUMIDITY.   PRES  - PRESSURE.
      HI  - HEAT INDEX.          WCI   - WIND CHILL INDEX.

*  THESE STATIONS ARE NOT NWS OR FAA STATIONS AND ARE NOT UNDER
   NWS QUALITY CONTROL.

LAZ038-040-048-061>063-065>067-069-212300-
SOUTHEAST LOUISIANA

CITY           SKY/WX    TMP DP  RH WIND       PRES   REMARKS
N.O. AUDUBON     N/A     81  76  84 MISG        N/A
N.O. INTL ARPT TSTM      79  72  79 W10       30.10R
N.O. LAKEFRONT PTSUNNY   87  71  58 SW6       30.10S
N.O. DOWNTOWN*   N/A     86  72  62 S6        30.11R
SLIDELL        MOSUNNY   93  70  46 S8        30.08R HX  99
BATON ROUGE    CLOUDY    77  75  93 CALM      30.09F
BOOTHVILLE     SUNNY     89  76  65 S6        30.11R HX 100
BELLE CHASSE   TSTM      77  73  87 W9        30.10F
BOGALUSA*        N/A     96  70  42 SW5       30.09R HX 102
GALLIANO*      NOT AVBL
NEW ROADS*       N/A     79  73  82 CALM      30.10F
GONZALES*      TSTM      80  80  99 CALM      30.11S
HAMMOND*       CLOUDY    84  66  54 W12G29    30.13R THUNDER
HOUMA*         PTSUNNY   82  73  74 CALM      30.11S
PORT FOURCHON* PTCLDY    90  75  62 SW5       30.12S HX 100

$$

MSZ070-080>082-212300-
SOUTHERN MISSISSIPPI

CITY           SKY/WX    TMP DP  RH WIND       PRES   REMARKS
MCCOMB         PTSUNNY   88  73  61 SW6       30.11R THUNDER HX  95
GULFPORT       SUNNY     91  73  55 VRB6      30.07S HX  99
BILOXI         SUNNY     91  74  57 S13       30.08S HX 100
PASCAGOULA     SUNNY     90  74  59 S8        30.07S HX  99
STENNIS ARPT*  MOSUNNY  N/A N/A N/A S7        30.08S

$$

COASTAL OBSERVATIONS
LAKE AND NEARSHORE STATIONS

STATION/POSITION TIME  TEMP    WIND        PRES    WAVE
                       AIR SEA DIR/SP/G            HT/PER
                 (UTC) (F)     (DEG/KT/KT) (MB)    (FT/S)
PASCAGOULA       2200   90     200/ 10/ 13 1018.1
WAVELAND YACHT   2200   89     190/  8/ 11 1018.0
GRAND ISLE       2200   89 90  200/  4/  7 1020.1
SOUTHWEST PASS   2200   91 89  180/  4/  5 1019.7
NEW CANAL        2200   86 86  220/  6/  8 1019.9
SHELL BEACH      2200   87 84  210/  6/  7 1019.2

OFFSHORE STATIONS

STATION/POSITION TIME  TEMP    WIND        PRES    WAVE
                       AIR SEA DIR/SP/G            HT/PER
                 (UTC) (F)     (DEG/KT/KT) (MB)    (FT/S)
64 S DAUPHIN ISL 2051   87 92  120/  2/  4 1019.2

$$




USA.gov is the U.S. government's official web portal to all federal, state and local government web resources and services.